Weather History for Roanoke, VA

Change the Weather History Date:

Wednesday, July 10, 2013

  Actual Average Record
Temperature  
Mean Temperature 81 °F 77 °F  
Max Temperature 90 °F 87 °F 105 °F (1936)
Min Temperature 71 °F 66 °F 50 °F (1961)
Degree Days  
Heating Degree Days 0 0  
Month to date heating degree days 0 0  
Since 1 June heating degree days 1 11  
Since 1 July heating degree days 0 0  
Cooling Degree Days 16 12  
Month to date cooling degree days 120 115  
Year to date cooling degree days 536 477  
Since 1 June cooling degree days 386 361  
Growing Degree Days 30 (Base 50)    
Moisture  
Dew Point 70 °F    
Average Humidity 73    
Maximum Humidity 93    
Minimum Humidity 52    
Precipitation  
Precipitation 3.88 in 0.13 in 3.88 in (2013)
Month to date precipitation 10.32 1.27  
Year to date precipitation 37.35 21.80  
Snow  
Snow 0.00 in - - ()
Month to date snowfall 0.0  
Since 1 June snowfall 0.0  
Since 1 July snowfall 0.0  
Snow Depth 0.00 in    
Sea Level Pressure  
Sea Level Pressure 30.02 in    
Wind  
Wind Speed 4 mph (WSW)    
Max Wind Speed 18 mph    
Max Gust Speed 23 mph    
Visibility 8 miles    
Events Fog , Rain , Thunderstorm    
T = Trace of Precipitation, MM = Missing Value Source: NWS Daily Summary

Daily Weather History Graph

Daily Weather History Graph

Search for Another Location

Airport:

Trip Planner

Search our weather history database for the weather conditions in past years. The results will help you decide how hot, cold, wet, or windy it might be!

Date:

Astronomy

Jul. 10, 2013 Rise Set
Actual Time 6:08 AM EDT 8:42 PM EDT
Civil Twilight 5:37 AM EDT 9:12 PM EDT
Nautical Twilight 4:59 AM EDT 9:50 PM EDT
Astronomical Twilight 4:17 AM EDT 10:32 PM EDT
Moon 8:23 AM EDT (7/10) 9:55 PM EDT (7/10)
Length of Visible Light 15h 35m
Length of Day
14h 34m
Waxing Crescent, 5% of the Moon is Illuminated
Jul 10
Waxing Crescent
Jul 15
First Quarter
Jul 22
Full
Jul 29
Last Quarter
Aug 6
New

Hourly Weather History & Observations

Time (EDT) Temp. Heat Index Dew Point Humidity Pressure Visibility Wind Dir Wind Speed Gust Speed Precip Events Conditions
12:54 AM 75.9 °F - 70.0 °F 82% 30.08 in 10.0 mi West 4.6 mph - N/A   Clear
1:54 AM 75.0 °F - 70.0 °F 84% 30.06 in 10.0 mi Calm Calm - N/A   Clear
2:54 AM 73.9 °F - 69.1 °F 85% 30.05 in 10.0 mi WSW 3.5 mph - N/A   Clear
3:54 AM 73.9 °F - 66.9 °F 79% 30.04 in 10.0 mi West 4.6 mph - N/A   Clear
4:54 AM 73.0 °F - 68.0 °F 84% 30.04 in 10.0 mi NW 3.5 mph - N/A   Clear
5:54 AM 73.0 °F - 66.9 °F 81% 30.04 in 10.0 mi NW 3.5 mph - N/A   Scattered Clouds
6:54 AM 73.9 °F - 68.0 °F 82% 30.04 in 10.0 mi Calm Calm - N/A   Clear
7:54 AM 75.0 °F - 69.1 °F 82% 30.05 in 10.0 mi West 3.5 mph - N/A   Partly Cloudy
8:54 AM 77.0 °F - 69.1 °F 76% 30.06 in 10.0 mi WSW 5.8 mph - N/A   Mostly Cloudy
9:54 AM 79.0 °F - 70.0 °F 74% 30.05 in 10.0 mi Variable 5.8 mph - N/A   Mostly Cloudy
10:54 AM 81.0 °F 84.1 °F 69.1 °F 67% 30.04 in 10.0 mi WSW 6.9 mph - N/A   Scattered Clouds
11:54 AM 84.0 °F 87.8 °F 69.1 °F 61% 30.04 in 10.0 mi WSW 8.1 mph - N/A   Partly Cloudy
12:54 PM 86.0 °F 91.5 °F 71.1 °F 61% 30.01 in 10.0 mi South 8.1 mph - N/A   Scattered Clouds
1:54 PM 90.0 °F 95.4 °F 70.0 °F 52% 29.99 in 10.0 mi SW 8.1 mph - N/A   Scattered Clouds
2:40 PM 84.2 °F 89.6 °F 71.6 °F 66% 30.02 in 10.0 mi SSE 3.5 mph - N/A Thunderstorm Thunderstorm
2:54 PM 79.0 °F - 70.0 °F 74% 29.96 in 5.0 mi Variable 6.9 mph - 0.02 in Rain , Thunderstorm Thunderstorms and Rain
3:07 PM 77.0 °F - 71.6 °F 83% 30.04 in 1.5 mi WSW 10.4 mph - 0.05 in Rain , Thunderstorm Heavy Thunderstorms and Rain
3:15 PM 73.4 °F - 71.6 °F 94% 30.05 in 0.2 mi South 11.5 mph 21.9 mph 0.37 in Fog , Rain , Thunderstorm Heavy Thunderstorms and Rain
3:20 PM 73.4 °F - 71.6 °F 94% 30.06 in 0.2 mi SE 15.0 mph 21.9 mph 0.72 in Fog , Rain , Thunderstorm Heavy Thunderstorms and Rain
3:51 PM 71.6 °F - 69.8 °F 94% 30.04 in 6.0 mi NE 9.2 mph - 3.36 in Rain , Thunderstorm Thunderstorms and Rain
3:54 PM 72.0 °F - 70.0 °F 93% 30.01 in 6.0 mi NNE 10.4 mph - 3.37 in Rain , Thunderstorm Thunderstorms and Rain
4:07 PM 73.4 °F - 69.8 °F 88% 30.04 in 10.0 mi East 6.9 mph - 0.00 in Thunderstorm Thunderstorm
4:11 PM 75.2 °F - 69.8 °F 83% 30.04 in 10.0 mi East 5.8 mph - 0.00 in   Mostly Cloudy
4:37 PM 73.4 °F - 69.8 °F 88% 30.03 in 10.0 mi SSW 5.8 mph - 0.00 in   Mostly Cloudy
4:54 PM 73.0 °F - 70.0 °F 90% 30.00 in 10.0 mi West 3.5 mph - 0.00 in   Mostly Cloudy
5:54 PM 73.0 °F - 69.1 °F 87% 29.99 in 10.0 mi Calm Calm - 0.09 in Rain Light Rain
6:40 PM 73.4 °F - 69.8 °F 88% 30.02 in 1.5 mi SW 5.8 mph - 0.20 in Rain Heavy Rain
6:42 PM 73.4 °F - 69.8 °F 88% 30.01 in 2.0 mi SW 4.6 mph - 0.22 in Rain , Thunderstorm Thunderstorms and Rain
6:54 PM 72.0 °F - 70.0 °F 93% 29.98 in 3.0 mi WSW 4.6 mph - 0.26 in Rain , Thunderstorm Light Thunderstorms and Rain
7:54 PM 72.0 °F - 70.0 °F 93% 30.00 in 9.0 mi Calm Calm - 0.14 in Rain Light Rain
8:54 PM 72.0 °F - 69.1 °F 91% 30.00 in 10.0 mi Calm Calm - 0.00 in   Overcast
9:54 PM 72.0 °F - 69.1 °F 91% 29.97 in 10.0 mi NNW 4.6 mph - 0.00 in Rain Light Rain
10:54 PM 72.0 °F - 70.0 °F 93% 29.96 in 10.0 mi SE 4.6 mph - 0.00 in   Mostly Cloudy
11:54 PM 72.0 °F - 70.0 °F 93% 29.97 in 10.0 mi Calm Calm - N/A   Overcast